Theta_e
321 323 324 325 325 325 326 327 328 327 326 325 323 323 321 320 319 318 318 314 309 308
322 323 325 326 326 327 327 327 326 326 324 323 322 319 318 318 315 313 312 313 307 302
326 326 326 326 325 326 326 325 323 322 322 317 317 315 315 314 309 310 302 298 297 294
320 322 323 326 325 324 322 322 323 322 320 317 314 312 312 309 306 306 300 296 296 292
313 315 317 321 322 319 321 316 318 316 314 312 311 309 309 306 304 304 300 295 293 291
305 310 312 313 315 316 315 311 309 309 309 307 307 306 306 306 303 302 301 296 292 291
301 303 306 309 309 310 310 308 306 306 306 304 304 303 301 300 299 300 297 295 292 290
299 300 300 301 302 301 302 303 302 300 298 298 298 297 295 294 295 293 292 291 289 290
296 295 294 293 293 293 294 295 294 293 294 293 294 295 295 295 292 291 289 288 288 288
291 291 289 288 289 289 289 288 289 290 291 290 290 294 294 292 291 290 289 287 287 288
289 288 288 287 287 287 287 289 289 289 289 289 289 293 293 290 288 288 288 287 287 286
287 284 285 283 284 288 287 286 287 286 287 287 287 291 292 289 286 286 286 286 286 286
287 282 282 283 281 282 286 286 285 286 286 286 286 291 292 289 287 285 285 285 285 284
283 281 281 281 281 280 284 285 285 284 284 285 286 288 291 291 286 286 286 284 283 284
Wind_Speed
17 11 12 14 12 11 11 11 13 14 14 14 13 13 11 8 10 10 9 10 6 6
15 16 14 14 11 10 11 10 11 13 14 13 13 12 11 10 10 8 7 9 10 5
11 12 14 10 12 12 10 10 10 12 12 10 10 9 10 8 6 9 4 5 6 4
8 8 8 12 12 12 8 10 12 13 13 12 11 9 9 8 8 10 9 6 10 8
7 7 8 11 11 7 9 6 8 8 8 8 9 9 11 10 9 12 11 10 8 9
7 7 7 7 7 7 6 6 6 7 8 8 9 10 10 11 11 12 12 11 11 11
6 6 5 5 6 6 6 6 6 7 8 9 9 9 9 9 10 10 8 11 11 11
4 4 4 4 5 5 7 7 7 7 6 5 6 6 8 8 9 9 8 6 8 10
3 4 5 5 5 4 3 3 2 4 5 6 5 11 16 14 11 11 12 11 9 9
3 2 1 2 3 5 5 3 5 5 4 6 6 11 14 12 9 11 11 12 9 9
3 4 4 4 4 3 1 4 4 5 6 5 5 11 13 13 7 8 9 10 12 12
3 3 3 4 4 5 5 4 4 3 4 5 5 12 15 13 7 8 9 8 9 11
3 4 3 3 3 2 1 2 4 4 3 4 4 10 14 13 5 7 7 7 8 10
1 2 2 3 1 1 1 2 2 3 3 3 4 6 16 18 6 6 5 6 6 7
Wind_Direction
210 211 214 213 210 213 212 214 212 212 215 215 215 216 211 211 212 202 202 186 176 183
211 216 217 222 214 218 220 220 211 207 211 212 212 210 204 208 204 197 196 201 179 169
211 216 223 217 218 217 217 207 201 203 206 197 204 205 203 210 187 186 180 154 157 159
212 204 200 215 218 215 209 199 201 206 204 199 192 191 204 203 184 190 176 169 176 173
210 213 213 217 216 190 205 191 197 190 192 195 194 187 197 199 203 198 193 182 173 169
221 209 217 218 202 186 183 185 174 172 186 190 193 192 199 209 198 201 201 190 180 183
223 219 216 213 205 207 188 186 183 186 189 192 193 197 191 192 199 198 206 185 184 172
261 260 232 216 210 197 189 187 181 176 182 181 182 184 182 182 186 184 166 180 166 171
325 338 328 333 322 319 310 286 236 228 205 196 206 199 192 185 185 177 174 183 175 171
174 181 238 355 351 322 303 308 286 274 241 241 222 205 195 187 186 180 180 166 177 168
205 203 194 184 201 210 226 272 268 258 245 239 239 211 190 174 172 168 171 175 177 172
236 236 222 226 218 196 174 186 224 269 253 240 251 209 189 170 171 177 181 186 181 180
211 192 219 240 222 232 221 198 173 202 222 238 242 215 195 186 186 189 178 176 187 191
58 238 220 187 189 228 253 213 183 180 177 202 205 214 206 201 197 202 198 191 182 180